Weather History for KLSF - January, 2013

Change the Weather History Date:

Wednesday, January 2, 2013

  Actual Average Record
Temperature  
Mean Temperature 55 °F -  
Max Temperature 62 °F 57 °F 78 °F (2006)
Min Temperature 47 °F 32 °F 19 °F (2001)
Degree Days  
Heating Degree Days 10    
Growing Degree Days 5 (Base 50)    
Moisture  
Dew Point 51 °F    
Average Humidity 86    
Maximum Humidity 100    
Minimum Humidity 49    
Precipitation  
Precipitation 0.02 in - - ()
Sea Level Pressure  
Sea Level Pressure 30.04 in    
Wind  
Wind Speed 9 mph (NW)    
Max Wind Speed 14 mph    
Max Gust Speed -    
Visibility 10 miles    
Events Rain    
Averages and records for this station are not official NWS values.
T = Trace of Precipitation, MM = Missing Value Source: NWS Daily Summary

Daily Weather History Graph

Daily Weather History Graph

Search for Another Location

Airport or City:

Trip Planner

Search our weather history database for the weather conditions in past years. The results will help you decide how hot, cold, wet, or windy it might be!

Date:

Astronomy

Jan. 02, 2013 Rise Set
Actual Time 7:41 AM EST 5:46 PM EST
Civil Twilight 7:14 AM EST 6:13 PM EST
Nautical Twilight 6:44 AM EST 6:44 PM EST
Astronomical Twilight 6:14 AM EST 7:14 PM EST
Moon 10:58 PM EST (1/2) 10:41 AM EST (1/2)
Length of Visible Light 10h 59m
Length of Day
10h 05m
Waning Gibbous, 75% of the Moon is Illuminated
Jan 2
Waning Gibbous
Jan 4
Last Quarter
Jan 11
New
Jan 18
First Quarter
Jan 26
Full

Hourly Weather History & Observations

Time (EST) Temp. Dew Point Humidity Pressure Visibility Wind Dir Wind Speed Gust Speed Precip Events Conditions
12:22 AM 62.6 °F 62.6 °F 100% 29.95 in 10.0 mi WNW 11.5 mph - N/A   Overcast
12:33 AM 60.8 °F 60.8 °F 100% 29.95 in 10.0 mi WNW 11.5 mph - N/A Rain Light Rain
12:50 AM 60.8 °F 59.0 °F 94% 29.96 in 10.0 mi NW 9.2 mph - N/A Rain Light Rain
12:55 AM 59.7 °F 59.5 °F 99% 29.95 in 10.0 mi NW 10.4 mph - 0.00 in Rain Light Rain
1:07 AM 59.0 °F 59.0 °F 100% 29.94 in 8.0 mi NW 8.1 mph - N/A Rain Light Rain
1:28 AM 57.2 °F 57.2 °F 100% 29.96 in 10.0 mi NW 11.5 mph - N/A   Overcast
1:40 AM 57.2 °F 57.2 °F 100% 29.96 in 10.0 mi NNW 6.9 mph - N/A   Overcast
1:51 AM 57.2 °F 57.2 °F 100% 29.96 in 10.0 mi NW 8.1 mph - N/A   Overcast
1:55 AM 57.0 °F 56.8 °F 99% 29.97 in 10.0 mi NW 8.1 mph - 0.02 in   Overcast
1:57 AM 57.2 °F 57.2 °F 100% 29.97 in 10.0 mi NW 9.2 mph - N/A   Overcast
1:59 AM 57.2 °F 57.2 °F 100% 29.97 in 10.0 mi NW 11.5 mph - N/A   Light Drizzle
2:06 AM 57.2 °F 55.4 °F 94% 29.96 in 10.0 mi NW 8.1 mph - N/A   Light Drizzle
2:08 AM 57.2 °F 55.4 °F 94% 29.97 in 10.0 mi NW 9.2 mph - N/A   Overcast
2:19 AM 57.2 °F 55.4 °F 94% 29.97 in 10.0 mi NW 6.9 mph - N/A   Overcast
2:36 AM 55.4 °F 55.4 °F 100% 29.97 in 10.0 mi NW 8.1 mph - N/A   Overcast
2:42 AM 55.4 °F 55.4 °F 100% 29.97 in 10.0 mi NW 6.9 mph - N/A   Overcast
2:55 AM 55.9 °F 55.6 °F 99% 29.97 in 10.0 mi NW 6.9 mph - 0.00 in   Overcast
3:48 AM 55.4 °F 53.6 °F 94% 29.99 in 10.0 mi NNW 8.1 mph - N/A   Overcast
3:55 AM 54.7 °F 53.2 °F 95% 29.99 in 10.0 mi NNW 8.1 mph - N/A   Overcast
4:03 AM 55.4 °F 53.6 °F 94% 29.99 in 10.0 mi NW 5.8 mph - N/A   Overcast
4:55 AM 54.7 °F 52.7 °F 93% 30.01 in 10.0 mi NW 10.4 mph - N/A   Overcast
5:55 AM 53.2 °F 50.4 °F 90% 30.02 in 10.0 mi North 13.8 mph - N/A   Overcast
6:03 AM 53.6 °F 50.0 °F 88% 30.03 in 10.0 mi NNW 10.4 mph - N/A   Overcast
6:18 AM 51.8 °F 50.0 °F 94% 30.03 in 10.0 mi NNW 8.1 mph - N/A   Overcast
6:55 AM 51.3 °F 48.4 °F 90% 30.04 in 10.0 mi NNW 5.8 mph - N/A   Mostly Cloudy
7:55 AM 48.4 °F 47.5 °F 97% 30.04 in 10.0 mi WNW 3.5 mph - N/A   Mostly Cloudy
8:51 AM 50.0 °F 48.2 °F 94% 30.09 in 10.0 mi NNW 8.1 mph - N/A   Mostly Cloudy
8:55 AM 50.2 °F 48.0 °F 92% 30.09 in 10.0 mi NNW 6.9 mph - N/A   Mostly Cloudy
9:19 AM 51.8 °F 48.2 °F 88% 30.09 in 10.0 mi NNW 8.1 mph - N/A   Overcast
9:55 AM 53.1 °F 48.4 °F 84% 30.09 in 10.0 mi NNW 8.1 mph - N/A   Mostly Cloudy
9:58 AM 53.6 °F 48.2 °F 82% 30.10 in 10.0 mi NNW 6.9 mph - N/A   Scattered Clouds
10:55 AM 55.2 °F 47.7 °F 76% 30.11 in 10.0 mi North 6.9 mph - N/A   Clear
11:55 AM 57.7 °F 47.3 °F 68% 30.10 in 10.0 mi North 10.4 mph - N/A   Clear
12:55 PM 59.4 °F 45.5 °F 60% 30.07 in 10.0 mi Variable 6.9 mph - N/A   Clear
1:55 PM 60.4 °F 43.3 °F 53% 30.05 in 10.0 mi Calm Calm - N/A   Clear
2:55 PM 61.2 °F 43.3 °F 52% 30.04 in 10.0 mi Calm Calm - N/A   Mostly Cloudy
3:55 PM 60.4 °F 41.4 °F 49% 30.05 in 10.0 mi North 5.8 mph - N/A   Mostly Cloudy
4:55 PM 58.3 °F 44.6 °F 60% 30.06 in 10.0 mi NW 5.8 mph - N/A   Overcast
5:55 PM 53.8 °F 44.1 °F 70% 30.07 in 10.0 mi WNW 6.9 mph - N/A   Overcast
6:55 PM 53.6 °F 44.8 °F 72% 30.10 in 10.0 mi NW 8.1 mph - N/A   Overcast
7:55 PM 51.4 °F 43.2 °F 73% 30.14 in 10.0 mi NW 10.4 mph - N/A   Overcast
8:29 PM 50.0 °F 42.8 °F 76% 30.15 in 10.0 mi NW 6.9 mph - N/A Rain Light Rain
8:39 PM 50.0 °F 42.8 °F 76% 30.16 in 10.0 mi NW 8.1 mph - N/A   Partly Cloudy
8:55 PM 50.2 °F 42.4 °F 75% 30.15 in 10.0 mi NW 8.1 mph - 0.00 in   Partly Cloudy
9:55 PM 49.6 °F 42.3 °F 76% 30.15 in 10.0 mi NNW 9.2 mph - N/A   Overcast
10:55 PM 48.6 °F 41.9 °F 78% 30.15 in 10.0 mi NW 8.1 mph - N/A   Overcast
11:55 PM 47.3 °F 41.9 °F 82% 30.16 in 10.0 mi NW 5.8 mph - N/A   Overcast